When you browse on this site, cookies collect data to enhance your experience and personalize the content and advertising you see.
Visit our Privacy Policy to learn more. By continuing to use the site, you agree to this use of cookies and data.
  • In Italy
  • List of Countries
  • For 7 days
  • Water Temperature
  • Satellite Maps
  • Weather Map
  • Weather Widgets
  • user-avatar
    Login

    Hourly Weather Kalgoorlie

    Today, 10 December, Monday

    Time Temperature Precipitation Wind Pressure Humidity
    00:00 +23°C° 0.7 mm 11 mps 727 mmHg 68%
    01:00 +23°C° 0.7 mm 10 mps 727 mmHg 71%
    02:00 +23°C° 0 mm 9 mps 727 mmHg 71%
    03:00 +23°C° 0.1 mm 8 mps 727 mmHg 74%
    04:00 +23°C° 0.1 mm 8 mps 727 mmHg 78%
    05:00 +22°C° 0.1 mm 7 mps 727 mmHg 81%
    06:00 +24°C° 0 mm 7 mps 727 mmHg 75%
    07:00 +26°C° 0 mm 7 mps 727 mmHg 69%
    08:00 +28°C° 0 mm 6 mps 727 mmHg 55%
    09:00 +30°C° 0 mm 5 mps 727 mmHg 49%
    10:00 +33°C° 0 mm 5 mps 727 mmHg 42%
    11:00 +35°C° 0 mm 5 mps 726 mmHg 36%
    12:00 +36°C° 0 mm 5 mps 726 mmHg 32%
    13:00 +37°C° 0 mm 5 mps 725 mmHg 29%
    14:00 +37°C° 0 mm 4 mps 725 mmHg 29%
    15:00 +37°C° 0 mm 4 mps 724 mmHg 29%
    16:00 +37°C° 0 mm 4 mps 724 mmHg 29%
    17:00 +37°C° 0 mm 4 mps 723 mmHg 30%
    18:00 +36°C° 0 mm 4 mps 723 mmHg 33%
    19:00 +35°C° 0 mm 3 mps 723 mmHg 35%
    20:00 +34°C° 0 mm 3 mps 723 mmHg 38%
    21:00 +32°C° 0 mm 5 mps 723 mmHg 47%
    22:00 +29°C° 0 mm 8 mps 723 mmHg 56%
    23:00 +27°C° 0 mm 10 mps 723 mmHg 65%

    Tomorrow, 11 December, Tuesday

    Time Temperature Precipitation Wind Pressure Humidity
    00:00 +26°C° 0 mm 10 mps 723 mmHg 68%
    01:00 +24°C° 0 mm 9 mps 723 mmHg 70%
    02:00 +23°C° 0 mm 9 mps 723 mmHg 73%
    03:00 +23°C° 0 mm 8 mps 723 mmHg 73%
    04:00 +23°C° 0 mm 6 mps 723 mmHg 74%
    05:00 +23°C° 0 mm 5 mps 723 mmHg 75%
    06:00 +25°C° 0 mm 4 mps 724 mmHg 69%
    07:00 +27°C° 0 mm 3 mps 724 mmHg 64%
    08:00 +28°C° 0 mm 2 mps 724 mmHg 58%
    09:00 +30°C° 0 mm 2 mps 724 mmHg 50%
    10:00 +32°C° 0 mm 2 mps 724 mmHg 42%
    11:00 +35°C° 0 mm 2 mps 724 mmHg 34%
    12:00 +36°C° 0 mm 3 mps 724 mmHg 30%
    13:00 +37°C° 0 mm 4 mps 724 mmHg 25%
    14:00 +39°C° 0 mm 5 mps 723 mmHg 20%
    15:00 +39°C° 0 mm 5 mps 723 mmHg 20%
    16:00 +37°C° 0 mm 5 mps 723 mmHg 21%
    17:00 +37°C° 0 mm 5 mps 723 mmHg 21%
    18:00 +35°C° 0 mm 6 mps 723 mmHg 27%
    19:00 +34°C° 0 mm 7 mps 724 mmHg 33%
    20:00 +33°C° 0 mm 7 mps 724 mmHg 38%
    21:00 +30°C° 0 mm 7 mps 725 mmHg 43%
    22:00 +29°C° 0 mm 7 mps 725 mmHg 48%
    23:00 +27°C° 0 mm 6 mps 726 mmHg 53%

    Day after tomorrow, 12 December, Wednesday

    Time Temperature Precipitation Wind Pressure Humidity
    00:00 +26°C° 0 mm 7 mps 726 mmHg 55%
    01:00 +24°C° 0 mm 7 mps 726 mmHg 57%
    02:00 +22°C° 0 mm 7 mps 726 mmHg 59%
    03:00 +21°C° 0 mm 7 mps 727 mmHg 59%
    04:00 +20°C° 0 mm 7 mps 727 mmHg 59%
    05:00 +20°C° 0 mm 6 mps 727 mmHg 59%
    06:00 +21°C° 0 mm 6 mps 728 mmHg 56%
    07:00 +22°C° 0 mm 6 mps 728 mmHg 52%
    08:00 +23°C° 0 mm 6 mps 729 mmHg 49%
    09:00 +24°C° 0 mm 6 mps 729 mmHg 45%
    10:00 +27°C° 0 mm 5 mps 729 mmHg 42%
    11:00 +28°C° 0 mm 4 mps 729 mmHg 38%
    12:00 +29°C° 0 mm 4 mps 729 mmHg 35%
    13:00 +30°C° 0 mm 4 mps 728 mmHg 32%
    14:00 +32°C° 0 mm 4 mps 728 mmHg 29%
    15:00 +32°C° 0 mm 4 mps 728 mmHg 28%
    16:00 +33°C° 0 mm 5 mps 728 mmHg 27%
    17:00 +33°C° 0 mm 5 mps 728 mmHg 27%
    18:00 +30°C° 0 mm 7 mps 729 mmHg 33%
    19:00 +28°C° 0 mm 8 mps 729 mmHg 38%
    20:00 +26°C° 0 mm 9 mps 730 mmHg 44%
    21:00 +24°C° 0 mm 10 mps 730 mmHg 48%
    22:00 +22°C° 0 mm 10 mps 731 mmHg 52%
    23:00 +21°C° 0 mm 10 mps 731 mmHg 55%

    13 December, Thursday

    Time Temperature Precipitation Wind Pressure Humidity
    00:00 +19°C° 0 mm 10 mps 731 mmHg 59%
    01:00 +18°C° 0 mm 9 mps 731 mmHg 62%
    02:00 +17°C° 0 mm 9 mps 731 mmHg 65%
    03:00 +16°C° 0 mm 8 mps 731 mmHg 66%
    04:00 +16°C° 0 mm 8 mps 731 mmHg 67%
    05:00 +15°C° 0 mm 8 mps 731 mmHg 68%
    06:00 +17°C° 0 mm 8 mps 731 mmHg 63%
    07:00 +18°C° 0 mm 7 mps 732 mmHg 58%
    08:00 +20°C° 0 mm 7 mps 732 mmHg 53%
    09:00 +22°C° 0 mm 7 mps 732 mmHg 46%
    10:00 +24°C° 0 mm 7 mps 732 mmHg 40%
    11:00 +27°C° 0 mm 7 mps 732 mmHg 33%
    12:00 +28°C° 0 mm 7 mps 731 mmHg 30%
    13:00 +29°C° 0 mm 6 mps 731 mmHg 27%
    14:00 +30°C° 0 mm 6 mps 730 mmHg 23%
    15:00 +32°C° 0 mm 6 mps 730 mmHg 22%
    16:00 +32°C° 0 mm 6 mps 730 mmHg 21%
    17:00 +32°C° 0 mm 6 mps 730 mmHg 20%
    18:00 +30°C° 0 mm 6 mps 730 mmHg 21%
    19:00 +29°C° 0 mm 6 mps 730 mmHg 22%
    20:00 +28°C° 0 mm 6 mps 731 mmHg 23%
    21:00 +27°C° 0 mm 7 mps 731 mmHg 25%
    22:00 +26°C° 0 mm 7 mps 731 mmHg 27%
    23:00 +24°C° 0 mm 7 mps 731 mmHg 30%

    14 December, Friday

    Time Temperature Precipitation Wind Pressure Humidity
    00:00 +23°C° 0 mm 8 mps 730 mmHg 35%
    01:00 +22°C° 0 mm 8 mps 730 mmHg 39%
    02:00 +19°C° 0 mm 9 mps 729 mmHg 44%
    03:00 +20°C° 0 mm 8 mps 729 mmHg 47%
    04:00 +18°C° 0 mm 8 mps 729 mmHg 50%
    05:00 +17°C° 0 mm 8 mps 729 mmHg 52%
    06:00 +20°C° 0 mm 8 mps 730 mmHg 49%
    07:00 +21°C° 0 mm 8 mps 730 mmHg 45%
    08:00 +22°C° 0 mm 8 mps 730 mmHg 42%
    09:00 +24°C° 0 mm 8 mps 730 mmHg 36%
    10:00 +27°C° 0 mm 7 mps 730 mmHg 30%
    11:00 +30°C° 0 mm 7 mps 729 mmHg 23%
    12:00 +32°C° 0 mm 6 mps 729 mmHg 21%
    13:00 +33°C° 0 mm 5 mps 728 mmHg 19%
    14:00 +34°C° 0 mm 5 mps 727 mmHg 17%
    15:00 +34°C° 0 mm 5 mps 727 mmHg 16%
    16:00 +34°C° 0 mm 4 mps 727 mmHg 15%
    17:00 +35°C° 0 mm 4 mps 727 mmHg 15%
    18:00 +33°C° 0 mm 5 mps 727 mmHg 15%
    19:00 +32°C° 0 mm 5 mps 727 mmHg 16%
    20:00 +30°C° 0 mm 6 mps 727 mmHg 16%
    21:00 +29°C° 0 mm 6 mps 727 mmHg 17%
    22:00 +28°C° 0 mm 6 mps 727 mmHg 17%
    23:00 +28°C° 0 mm 7 mps 727 mmHg 18%

    15 December, Saturday

    Time Temperature Precipitation Wind Pressure Humidity
    00:00 +27°C° 0 mm 7 mps 726 mmHg 19%
    01:00 +26°C° 0 mm 7 mps 726 mmHg 20%
    02:00 +24°C° 0 mm 7 mps 725 mmHg 21%
    03:00 +24°C° 0 mm 7 mps 726 mmHg 23%
    04:00 +23°C° 0 mm 7 mps 726 mmHg 25%
    05:00 +23°C° 0 mm 7 mps 726 mmHg 27%
    06:00 +24°C° 0 mm 8 mps 726 mmHg 26%
    07:00 +26°C° 0 mm 8 mps 726 mmHg 24%
    08:00 +28°C° 0 mm 8 mps 726 mmHg 23%
    09:00 +31°C° 0 mm 8 mps 726 mmHg 20%
    10:00 +33°C° 0 mm 8 mps 725 mmHg 17%
    11:00 +35°C° 0 mm 7 mps 725 mmHg 14%
    12:00 +36°C° 0 mm 7 mps 724 mmHg 13%
    13:00 +36°C° 0 mm 7 mps 723 mmHg 13%
    14:00 +38°C° 0 mm 6 mps 722 mmHg 12%
    15:00 +38°C° 0 mm 6 mps 722 mmHg 12%
    16:00 +38°C° 0 mm 6 mps 722 mmHg 12%
    17:00 +39°C° 0 mm 6 mps 721 mmHg 13%
    18:00 +37°C° 0 mm 8 mps 721 mmHg 15%
    19:00 +34°C° 0 mm 10 mps 721 mmHg 17%
    20:00 +32°C° 0 mm 12 mps 721 mmHg 19%
    21:00 +31°C° 0 mm 12 mps 721 mmHg 20%
    22:00 +29°C° 0 mm 12 mps 722 mmHg 20%
    23:00 +28°C° 0 mm 12 mps 722 mmHg 20%
    Show more